CAPE
842 923 637 509 771 498 0 165 244 260 272 248 127 84 29 163 276 255 686 1483 2204 2573 2869 3261 3715 3456 3057 2756 2392 2300 2126 2021 1962 1785 1415 1719 1960 1885 1835 1770 1743 1853 1675 1527 1608 1017 653 958 964
985 796 496 779 711 0 0 14 217 276 317 522 633 698 829 1037 898 1053 1264 2021 2161 2498 2753 2895 3696 3635 3203 2883 2497 2323 2093 2046 1941 1865 1654 1863 1723 1702 1663 1657 1768 1454 1481 1619 1691 804 744 1433 768
725 506 551 1106 894 0 10 33 283 332 449 428 512 615 921 970 801 969 1236 1981 2298 2430 2589 2831 3402 3453 3090 2937 2548 2306 2019 2216 2121 2011 1741 2041 1889 2008 1884 1615 1749 1618 1730 1807 1387 1016 987 1462 1187
539 1360 1054 1106 808 28 0 27 260 323 313 513 633 679 723 841 621 643 1568 1973 2032 2151 2420 3186 3485 3085 3038 2870 2586 2340 2079 2387 2261 2106 2064 1893 1853 1823 1521 1835 1945 1588 1782 1595 955 890 1178 1333 1336
0 216 74 476 560 0 0 92 124 182 283 587 640 639 587 730 608 1110 1432 1565 1566 1904 2206 2807 3512 3476 3252 2644 2574 2379 2361 2527 2395 2130 2203 2108 1825 2033 2226 1714 1777 1539 1681 1544 916 743 1354 1156 1275
78 99 56 23 47 0 7 146 208 294 538 583 519 459 490 596 633 921 919 944 1207 1628 2211 2648 3187 3298 2912 2622 2589 2462 2538 2667 2281 2259 2171 2016 1970 1934 2029 1944 1859 1604 1912 1133 809 602 935 877 896
421 648 430 458 2 0 0 25 253 357 541 613 501 429 402 405 448 607 456 508 875 1453 1993 2218 2496 2579 2822 2818 2788 2735 2530 2262 2272 2754 2325 2210 2092 2018 1892 1809 2067 1793 1587 1334 1115 916 1034 961 876
657 332 224 277 53 28 0 0 158 405 517 583 439 387 631 560 411 331 315 649 657 1377 1611 1722 1853 1688 1756 1872 2623 2450 2707 2684 2466 2238 1882 2140 2036 1716 1768 2273 2341 2002 1502 1705 1163 1636 1144 1570 1269
868 582 400 476 374 94 7 39 63 108 509 566 453 371 327 546 467 567 737 747 849 1028 1388 1587 1735 1423 1586 1877 2440 2935 2616 2621 2469 2025 1827 1778 1185 1371 1454 1641 1853 1741 1807 1803 1472 1330 1696 1431 1549
474 39 158 178 229 183 16 26 61 167 464 417 420 314 277 673 574 645 619 606 574 664 1222 1414 1466 1312 1299 1718 1748 2024 1721 1721 1600 1742 1491 1343 1110 955 1266 1535 1720 1766 1768 1767 1567 1759 1488 1221 731
161 302 53 7 8 2 19 29 20 133 243 319 309 250 269 563 698 662 607 518 378 387 835 1104 1158 1159 1210 1539 1398 1632 1349 1324 1225 1219 1201 965 960 846 843 836 1054 1042 1515 1223 1535 1469 1344 1168 613
0 0 0 0 0 0 18 13 11 121 119 205 278 228 236 416 778 874 800 738 674 556 493 720 895 947 968 942 1246 1397 1330 1014 978 937 987 971 727 327 147 234 441 501 826 925 1024 909 1056 1110 673
0 0 0 0 0 0 10 44 13 46 137 385 314 283 258 224 595 903 1012 1004 897 791 713 806 759 810 826 971 1052 1094 1198 1054 858 759 748 939 776 366 75 223 315 499 590 750 568 633 697 708 593
0 0 0 0 0 0 44 71 23 48 302 368 331 327 296 232 198 539 842 1046 980 999 973 1067 977 978 954 1013 1148 1016 957 913 626 687 582 448 449 276 104 241 290 404 371 476 418 406 439 427 366
0 0 0 0 0 0 0 2 49 67 398 445 373 336 335 283 217 231 319 703 903 1031 965 1047 1005 993 999 975 1187 1123 949 973 837 700 275 165 297 123 86 100 142 221 292 316 283 243 202 184 178
0 0 0 0 0 0 0 0 0 2 299 382 428 415 367 325 298 312 341 277 541 979 841 997 1128 850 841 901 917 1083 1113 1029 908 674 182 43 50 128 72 28 67 80 117 102 151 144 180 110 103
0 0 0 0 0 0 0 0 0 14 189 283 347 351 421 327 302 396 442 423 256 420 735 872 977 907 813 799 851 991 981 775 724 430 281 119 37 0 0 0 3 34 76 134 84 100 184 103 85
0 0 0 0 0 0 0 0 0 34 68 203 234 245 317 318 314 380 531 478 363 303 583 810 876 975 939 958 831 596 471 378 222 271 324 469 164 101 22 0 0 2 7 96 109 170 94 67 61
0 0 0 0 0 0 0 0 0 0 84 105 123 201 239 360 365 403 553 482 398 414 679 863 901 913 1166 1211 900 568 526 151 30 0 0 135 344 287 149 30 4 2 3 46 130 140 165 196 27
0 0 0 0 0 0 0 0 0 0 66 83 137 153 169 210 270 392 403 455 479 499 738 861 1002 910 1148 1299 1138 651 217 133 78 36 84 451 639 458 220 92 34 17 5 1 42 159 61 84 40
0 0 0 0 0 0 0 0 0 0 0 0 15 166 154 177 139 262 344 506 555 639 804 882 1043 1119 1135 1391 638 285 247 240 281 271 311 387 793 612 296 134 68 7 10 1 6 0 26 81 31
0 0 0 0 0 0 0 0 0 0 0 0 0 2 120 190 143 164 378 640 664 733 863 973 1141 1347 1527 1164 967 635 785 860 376 388 370 562 939 446 273 147 86 5 1 16 0 0 0 0 0
0 0 0 0 0 0 0 0 0 0 0 0 0 0 0 87 203 217 388 777 781 867 963 1049 1352 1602 1705 1263 1160 719 368 248 139 202 316 390 788 609 398 207 56 33 0 2 1 0 0 0 0
0 0 0 0 0 0 0 0 0 0 0 0 0 0 0 11 205 331 392 808 950 1062 1106 1316 1811 1997 1566 1251 916 680 590 451 497 619 742 409 365 313 370 230 41 30 12 0 0 0 0 0 0
0 0 0 0 0 0 0 0 0 0 0 0 0 0 26 92 241 428 376 1116 1302 1355 1334 1778 2149 2172 1486 1225 781 706 1195 957 768 615 374 321 208 237 295 224 69 49 36 19 0 0 0 4 5
0 0 0 0 0 0 0 0 0 0 0 0 0 0 144 205 255 315 588 1373 1687 1613 1804 2092 2339 1797 1739 1395 1298 828 267 21 2 321 547 359 293 226 85 40 59 123 114 82 29 12 9 26 54
0 0 0 0 0 0 0 0 0 0 0 0 0 0 581 411 336 438 888 1811 2005 2023 2275 1905 1323 1219 1239 997 724 401 85 0 0 4 767 543 294 290 124 0 1 85 143 107 123 148 170 144 150
0 0 0 0 0 0 0 0 0 0 2 13 0 20 212 321 806 965 1524 2437 2629 2073 1369 896 879 699 653 574 689 283 76 26 14 313 1000 805 467 294 99 42 5 0 20 115 93 77 40 120 56
0 0 0 0 0 0 0 0 0 2 591 887 2390 2332 2389 2524 2520 2586 2477 1976 1423 982 1098 640 490 548 667 918 1106 299 181 207 494 975 935 594 293 141 56 34 9 0 1 3 17 33 26 38 36
0 0 0 0 0 0 0 0 93 143 1010 2471 2905 2981 2973 2592 2252 1846 1352 1312 1157 1032 963 669 626 833 1103 1164 1330 1211 1229 1252 1387 1156 724 351 268 42 0 0 0 0 0 0 6 37 61 50 19
CIN
-163 -118 -180 -194 -134 -144 -0 -36 -65 -50 -67 -83 -175 -203 -230 -180 -113 -105 -289 -149 -82 -35 -4 -0 -0 -0 -0 -0 -8 -9 -7 -3 -1 -1 -3 -0 -0 -0 -0 -0 -0 -0 -0 -0 -0 -0 -0 -0 -0
-168 -180 -224 -145 -108 -0 -0 -44 -89 -85 -101 -107 -80 -60 -58 -56 -145 -180 -142 -42 -61 -37 -9 -0 -0 -0 -0 -0 -2 -4 -12 -8 -7 -1 -0 -0 -0 -0 -0 -0 -0 -0 -0 -0 -0 -0 -0 -0 -0
-238 -240 -233 -105 -103 -0 -74 -116 -143 -136 -123 -91 -100 -87 -68 -78 -199 -200 -159 -63 -24 -30 -26 -5 -0 -0 -0 -0 -0 -1 -8 -1 -0 -0 -0 -0 -0 -0 -0 -0 -0 -0 -0 -0 -0 -0 -0 -0 -0
-292 -132 -153 -114 -81 -93 -0 -208 -148 -154 -159 -103 -111 -118 -99 -130 -207 -206 -147 -78 -65 -59 -34 -0 -0 -0 -0 -0 -0 -0 -0 -0 -0 -0 -0 -0 -0 -0 -0 -0 -0 -0 -0 -0 -0 -0 -0 -0 -0
-0 -393 -234 -157 -103 -0 -42 -201 -173 -173 -180 -167 -138 -150 -159 -162 -219 -238 -190 -147 -159 -88 -52 -15 -0 -0 -0 -0 -0 -0 -0 -0 -0 -0 -0 -0 -0 -0 -0 -0 -0 -0 -0 -0 -6 -6 -0 -0 -0
-514 -518 -147 -62 -63 -0 -153 -205 -193 -184 -210 -231 -202 -200 -221 -235 -256 -209 -198 -180 -159 -146 -53 -16 -0 -0 -2 -4 -0 -0 -0 -0 -0 -0 -0 -0 -0 -0 -0 -0 -0 -0 -0 -0 -9 -19 -0 -3 -5
-293 -197 -137 -113 -25 -0 -11 -231 -185 -230 -247 -223 -266 -245 -304 -311 -283 -237 -264 -232 -175 -107 -64 -33 -8 -5 -1 -1 -0 -0 -0 -1 -0 -0 -0 -0 -0 -0 -0 -0 -0 -0 -0 -0 -0 -10 -3 -7 -9
-257 -254 -102 -91 -45 -46 -0 -0 -223 -245 -233 -282 -333 -300 -304 -315 -361 -363 -352 -220 -184 -94 -73 -84 -61 -61 -49 -39 -1 -0 -0 -0 -0 -0 -0 -0 -0 -0 -0 -0 -0 -0 -1 -0 -0 -0 -5 -0 -6
-227 -121 -117 -102 -48 -84 -128 -160 -205 -240 -265 -247 -318 -349 -392 -406 -385 -378 -291 -223 -149 -105 -80 -75 -60 -94 -74 -45 -2 -0 -0 -0 -0 -1 -0 -0 -18 -8 -2 -3 -0 -0 -0 -0 -0 -0 -0 -2 -1
-217 -264 -153 -230 -162 -123 -83 -164 -166 -190 -237 -236 -295 -355 -549 -461 -434 -408 -388 -334 -275 -207 -92 -74 -74 -102 -88 -31 -37 -24 -32 -20 -15 -7 -13 -33 -42 -48 -26 -8 -0 -0 -0 -0 -0 -0 -0 -6 -45
-262 -145 -203 -59 -15 -20 -102 -132 -227 -234 -223 -277 -294 -423 -567 -518 -424 -413 -394 -412 -436 -384 -205 -123 -104 -99 -109 -51 -73 -53 -77 -71 -65 -43 -43 -70 -57 -53 -46 -39 -23 -18 -6 -5 -2 -1 -3 -24 -64
-0 -0 -0 -0 -0 -0 -106 -139 -223 -213 -140 -268 -395 -416 -522 -580 -468 -414 -374 -350 -346 -346 -349 -272 -182 -152 -137 -118 -97 -75 -82 -127 -111 -97 -81 -66 -73 -84 -111 -116 -76 -70 -44 -18 -15 -41 -29 -28 -58
-0 -0 -0 -0 -0 -0 -99 -135 -163 -213 -264 -354 -441 -451 -455 -571 -543 -442 -354 -301 -314 -329 -309 -276 -251 -213 -154 -108 -105 -112 -106 -122 -140 -132 -112 -79 -81 -104 -125 -132 -100 -81 -66 -44 -49 -44 -38 -39 -55
-0 -0 -0 -0 -0 -0 -179 -214 -155 -146 -333 -395 -436 -489 -476 -454 -572 -507 -430 -330 -300 -310 -302 -258 -246 -205 -158 -144 -146 -172 -164 -145 -146 -146 -154 -131 -128 -137 -158 -140 -123 -89 -90 -82 -77 -73 -60 -64 -73
-0 -0 -0 -0 -0 -0 -0 -12 -167 -161 -322 -380 -416 -470 -511 -514 -516 -560 -565 -443 -373 -316 -320 -285 -269 -237 -193 -167 -127 -122 -159 -155 -146 -143 -209 -217 -142 -171 -168 -169 -157 -146 -111 -98 -95 -88 -85 -84 -94
-0 -0 -0 -0 -0 -0 -0 -0 -0 -54 -345 -369 -402 -441 -500 -567 -554 -502 -478 -539 -445 -340 -375 -320 -255 -295 -250 -203 -186 -148 -151 -171 -149 -147 -251 -331 -275 -166 -162 -183 -158 -153 -140 -137 -121 -113 -96 -100 -100
-0 -0 -0 -0 -0 -0 -0 -0 -0 -315 -350 -350 -382 -426 -444 -503 -559 -517 -468 -462 -520 -482 -404 -380 -300 -311 -293 -268 -232 -189 -167 -190 -164 -176 -184 -247 -294 -0 -0 -0 -45 -137 -117 -105 -139 -117 -95 -103 -117
-0 -0 -0 -0 -0 -0 -0 -0 -0 -325 -358 -342 -348 -405 -449 -498 -533 -543 -504 -504 -485 -531 -469 -394 -345 -304 -281 -279 -265 -264 -249 -244 -282 -222 -189 -131 -196 -205 -282 -0 -0 -30 -94 -76 -85 -74 -100 -117 -115
-0 -0 -0 -0 -0 -0 -0 -0 -0 -0 -323 -284 -370 -388 -408 -453 -482 -509 -511 -537 -517 -479 -444 -404 -362 -340 -259 -229 -243 -268 -225 -320 -374 -0 -1 -245 -150 -151 -185 -255 -118 -196 -99 -70 -82 -81 -67 -52 -111
-0 -0 -0 -0 -0 -0 -0 -0 -0 -0 -276 -301 -352 -395 -403 -410 -494 -511 -570 -565 -525 -491 -450 -427 -369 -366 -277 -219 -232 -267 -390 -381 -361 -322 -309 -172 -123 -138 -170 -196 -179 -179 -103 -15 -61 -51 -68 -84 -86
-0 -0 -0 -0 -0 -0 -0 -0 -0 -0 -0 -0 -201 -337 -372 -352 -492 -541 -597 -626 -546 -486 -456 -436 -399 -377 -282 -217 -316 -378 -361 -361 -300 -268 -218 -197 -135 -141 -167 -174 -167 -104 -131 -33 -73 -6 -86 -63 -99
-0 -0 -0 -0 -0 -0 -0 -0 -0 -0 -0 -0 -0 -31 -350 -366 -434 -578 -533 -597 -582 -507 -445 -399 -394 -352 -265 -298 -273 -304 -261 -216 -309 -247 -221 -153 -118 -162 -176 -187 -179 -33 -39 -64 -0 -0 -0 -0 -0
-0 -0 -0 -0 -0 -0 -0 -0 -0 -0 -0 -0 -0 -0 -0 -389 -428 -567 -534 -577 -567 -485 -466 -436 -399 -320 -269 -299 -272 -324 -362 -382 -426 -341 -226 -197 -118 -129 -142 -161 -188 -165 -0 -31 -47 -11 -0 -0 -0
-0 -0 -0 -0 -0 -0 -0 -0 -0 -0 -0 -0 -0 -0 -0 -374 -432 -541 -496 -564 -558 -498 -482 -457 -363 -280 -308 -299 -338 -340 -303 -285 -241 -194 -156 -174 -178 -157 -125 -143 -181 -162 -149 -0 -0 -0 -0 -0 -0
-0 -0 -0 -0 -0 -0 -0 -0 -0 -0 -0 -0 -0 -0 -368 -429 -403 -486 -601 -577 -562 -533 -489 -425 -314 -257 -316 -299 -340 -300 -133 -130 -118 -114 -192 -220 -225 -171 -134 -141 -156 -151 -156 -134 -0 -0 -0 -135 -128
-0 -0 -0 -0 -0 -0 -0 -0 -0 -0 -0 -0 -0 -0 -369 -335 -379 -569 -604 -576 -552 -510 -474 -348 -282 -312 -269 -266 -218 -279 -332 -300 -20 -128 -120 -206 -188 -169 -206 -187 -151 -107 -108 -102 -113 -114 -131 -110 -80
-0 -0 -0 -0 -0 -0 -0 -0 -0 -0 -0 -0 -0 -21 -291 -317 -396 -602 -643 -550 -478 -457 -409 -416 -462 -413 -352 -330 -347 -379 -499 -0 -0 -371 -119 -186 -195 -159 -199 -0 -0 -108 -100 -108 -98 -83 -68 -58 -69
-0 -0 -0 -0 -0 -0 -0 -0 -0 -0 -116 -194 -0 -204 -462 -560 -595 -666 -566 -431 -374 -446 -555 -604 -556 -550 -465 -448 -371 -495 -567 -523 -555 -315 -151 -115 -172 -204 -221 -195 -36 -0 -116 -79 -84 -97 -118 -82 -116
-0 -0 -0 -0 -0 -0 -0 -0 -0 -45 -327 -409 -283 -408 -433 -439 -417 -357 -344 -449 -554 -635 -571 -653 -671 -570 -468 -345 -266 -446 -455 -399 -297 -142 -120 -173 -242 -276 -246 -211 -178 -0 -36 -35 -99 -88 -110 -99 -108
-0 -0 -0 -0 -0 -0 -0 -0 -415 -362 -331 -301 -193 -218 -291 -349 -386 -445 -509 -489 -512 -544 -572 -608 -624 -507 -414 -305 -208 -183 -162 -149 -115 -109 -156 -245 -253 -365 -0 -0 -0 -0 -0 -0 -149 -100 -66 -69 -104
Wind_Speed
11 7 2 1 2 2 3 2 4 3 2 1 6 4 5 2 4 5 2 5 14 12 12 14 16 16 16 15 15 15 14 13 13 13 12 12 12 13 12 13 13 13 12 12 13 13 13 13 14
8 8 1 2 2 3 3 1 5 2 6 9 7 5 4 2 3 7 7 8 14 12 10 11 14 14 15 15 14 14 13 13 12 11 11 11 11 11 11 11 13 12 12 12 13 13 14 13 14
11 7 2 0 1 2 4 4 8 8 10 3 5 4 3 3 4 10 7 14 12 9 7 11 17 16 16 15 14 13 13 13 12 11 11 10 12 11 11 10 12 12 12 13 11 12 13 13 13
5 1 2 2 3 6 5 9 9 12 4 4 4 6 4 5 13 8 17 16 13 9 8 14 17 17 16 16 15 14 13 12 12 11 11 11 12 11 11 11 9 11 11 12 10 11 12 12 12
3 1 2 1 4 4 1 12 13 8 5 6 3 3 3 9 8 18 18 16 17 12 10 13 18 17 16 16 15 14 14 12 12 11 10 11 11 11 12 12 11 10 10 11 10 10 11 11 11
2 1 3 4 4 3 2 10 7 6 7 7 6 4 3 7 16 14 15 13 10 13 10 10 17 18 18 17 16 15 14 13 12 10 10 10 10 10 10 11 13 11 9 10 10 10 10 11 9
1 2 1 4 3 1 4 6 5 9 12 5 12 6 2 7 13 14 13 10 9 9 9 7 8 14 19 18 17 16 15 14 13 12 10 9 9 10 10 10 10 12 9 9 10 10 10 10 9
3 1 5 4 5 6 4 3 6 12 11 13 9 7 6 10 13 12 9 8 7 7 8 7 6 7 8 10 17 16 15 14 12 10 10 10 9 8 9 8 8 10 11 10 10 10 10 9 9
4 2 3 5 4 6 1 5 5 2 12 6 9 7 8 17 17 13 11 6 6 7 6 6 7 6 5 5 9 13 14 13 13 11 11 9 4 4 6 6 9 10 11 12 11 10 10 9 8
5 4 8 8 9 9 9 6 7 6 7 4 4 5 19 21 19 17 15 13 12 11 9 8 9 8 5 6 4 5 5 4 3 4 5 4 5 4 4 7 10 11 11 11 11 10 10 8 2
7 6 8 12 11 7 12 10 3 8 5 8 15 18 21 22 19 18 16 18 19 16 10 12 10 8 9 7 4 3 3 3 3 5 5 4 3 3 2 2 2 3 9 3 6 5 3 4 3
3 7 9 8 4 8 8 11 6 11 10 13 16 25 21 24 20 20 18 16 14 13 15 13 11 10 9 4 6 5 4 3 4 5 6 4 3 4 3 3 4 4 3 4 3 2 3 3 4
8 6 5 9 9 8 4 13 7 13 4 14 17 20 20 21 21 18 18 16 14 14 13 13 12 11 9 7 6 5 6 5 5 5 5 4 4 4 4 4 4 4 4 4 4 3 3 4 4
4 6 7 7 15 5 6 6 6 10 9 14 19 21 19 20 20 17 17 16 15 15 14 13 14 12 10 10 11 7 7 5 5 5 6 6 4 4 4 4 4 4 4 4 4 4 4 4 4
3 8 8 7 2 2 7 3 10 9 16 19 20 19 19 18 17 19 19 18 18 14 15 15 14 12 12 13 8 6 5 7 7 5 6 7 5 5 5 4 4 5 5 5 4 4 3 3 3
2 5 5 5 10 6 8 10 19 13 21 19 19 18 19 20 21 17 17 16 17 15 15 14 12 13 13 11 7 6 8 4 5 4 4 5 6 6 5 4 4 4 4 5 5 4 4 4 4
6 4 6 13 7 1 5 13 18 7 23 22 20 19 18 15 16 17 17 16 16 16 16 14 13 14 14 9 8 8 8 4 4 4 4 5 5 5 4 4 4 4 4 4 5 3 4 3 4
7 5 5 7 6 8 12 13 9 9 13 20 20 17 16 17 24 20 19 16 16 14 14 14 12 13 13 7 5 3 2 2 3 4 4 7 6 7 6 4 5 4 3 4 4 3 3 3 4
5 4 7 9 10 2 12 13 21 10 12 16 13 15 17 21 19 14 15 17 15 14 13 14 14 13 10 6 6 3 6 3 3 4 6 6 6 8 7 4 4 5 5 6 7 3 5 3 2
5 5 10 9 14 6 10 15 11 6 19 14 17 17 20 20 12 16 16 17 18 18 15 14 15 14 12 9 6 3 4 3 2 3 4 6 7 7 7 6 5 5 5 5 5 5 3 3 4
6 7 12 10 10 6 7 7 7 6 6 8 12 18 19 21 17 17 18 21 18 18 18 16 16 15 13 8 5 3 3 2 1 3 3 5 7 7 6 6 5 5 4 5 5 5 6 4 3
8 10 12 11 2 9 5 8 7 6 8 7 11 18 20 20 15 16 19 17 20 20 16 16 14 14 11 10 8 5 5 4 4 3 3 4 5 6 7 6 6 5 4 4 5 4 4 4 4
14 3 8 9 6 1 3 3 9 4 9 11 10 13 20 24 21 21 22 22 23 17 17 13 12 11 11 11 10 8 4 3 2 1 3 3 4 5 6 6 6 6 4 4 6 5 5 3 3
8 3 6 5 3 3 7 7 6 5 8 7 6 10 10 15 19 21 21 16 16 13 14 12 13 11 10 10 8 8 7 4 2 3 3 4 3 3 5 6 6 5 6 7 6 5 6 5 4
4 6 5 7 4 9 7 3 10 4 7 12 16 13 8 12 15 14 14 16 16 17 15 12 13 10 10 8 6 4 4 4 4 6 2 2 2 3 6 5 6 5 6 6 6 6 6 6 4
7 11 8 6 6 10 1 7 9 8 11 9 13 12 6 8 10 12 15 16 17 17 15 14 13 11 10 9 7 7 7 4 2 4 5 3 4 3 3 3 3 6 7 7 7 5 5 6 5
6 5 8 4 2 2 5 9 11 7 12 8 13 10 11 10 11 12 13 14 15 15 14 14 13 10 9 7 7 7 7 7 7 8 5 3 3 3 4 4 5 6 7 6 6 3 5 5 5
8 6 1 2 2 4 5 6 8 11 11 10 4 9 4 5 8 9 11 12 10 11 10 12 12 12 9 8 6 6 6 5 5 3 6 5 3 3 4 5 5 5 4 3 4 4 4 4 3
0 3 2 7 5 6 4 9 8 6 6 6 7 9 10 11 11 9 9 9 10 11 12 12 11 11 8 6 6 7 5 5 3 4 3 4 3 4 4 5 5 5 3 3 4 4 3 5 4
8 10 7 5 7 4 3 9 3 5 3 9 12 8 13 14 13 12 11 9 8 9 10 11 9 9 7 6 6 6 6 5 5 4 4 4 4 4 5 4 3 3 4 5 5 4 4 5 5
Wind_Direction
174 173 179 172 36 66 310 70 151 139 85 295 129 150 166 117 182 208 120 141 137 143 151 156 156 156 153 150 148 144 142 136 129 124 126 129 131 128 127 127 129 139 134 132 134 126 123 126 124
165 155 46 308 11 84 298 305 134 144 131 121 115 99 71 36 74 111 110 155 143 142 146 153 159 158 156 151 150 149 148 142 135 133 133 132 134 132 130 135 135 135 139 143 132 126 131 130 125
165 214 114 131 237 223 170 169 145 135 151 154 114 86 94 147 97 148 134 143 139 139 144 158 162 160 159 156 155 156 155 151 151 146 143 146 144 148 135 135 140 138 141 131 129 134 134 128 130
176 201 268 114 279 262 182 170 156 154 102 65 85 81 70 175 153 149 143 145 141 146 149 161 164 164 160 160 160 161 162 162 160 160 161 157 152 147 143 141 131 140 150 137 140 141 145 133 132
31 220 49 305 267 267 314 163 157 156 139 124 111 116 81 136 116 142 150 156 154 160 163 160 164 163 161 164 167 166 169 168 172 172 171 167 163 156 155 147 144 148 152 143 148 154 143 138 136
320 142 43 346 303 159 226 180 170 112 121 123 105 97 148 135 134 152 154 164 163 157 159 164 164 163 164 167 169 171 175 174 176 178 174 172 173 167 161 159 156 162 166 153 158 160 155 146 148
320 75 258 262 266 164 212 172 185 148 143 175 147 118 102 163 156 154 153 148 153 158 152 160 166 170 169 170 172 175 175 179 183 178 173 176 178 171 171 169 169 162 166 168 171 166 168 159 161
155 38 344 312 325 316 282 204 173 151 172 129 156 158 186 192 158 139 127 134 144 158 170 161 163 172 174 176 175 177 179 185 182 181 180 181 177 176 181 177 184 174 172 182 183 183 180 177 173
146 27 263 245 259 248 252 244 160 182 136 180 191 161 167 153 149 132 130 126 151 171 176 169 167 173 173 170 180 181 183 188 185 188 188 183 172 205 199 190 196 191 187 189 190 196 193 192 191
185 151 231 220 221 259 201 208 188 151 164 196 172 120 126 140 152 154 165 165 178 183 190 187 181 176 161 181 194 163 182 176 180 191 206 180 182 198 203 207 213 201 197 198 196 204 208 205 174
199 213 248 269 263 302 215 213 239 141 213 207 176 164 146 149 164 167 177 176 184 188 181 188 187 179 174 182 171 171 192 171 181 193 206 189 199 219 208 192 235 227 209 204 200 201 210 206 180
218 245 251 276 246 324 220 178 204 195 216 170 169 170 154 161 170 173 178 183 184 185 189 183 183 183 186 171 181 189 196 191 178 200 202 191 193 217 205 187 208 197 205 190 195 206 200 223 220
208 238 245 278 295 250 179 198 177 239 61 148 156 169 181 167 173 177 176 183 184 184 189 186 181 187 181 181 188 193 200 196 202 197 202 190 198 201 215 188 198 191 178 190 191 199 213 224 225
257 269 277 287 298 269 157 211 159 227 144 153 167 176 187 184 175 170 177 181 190 188 189 181 186 184 179 194 196 189 181 180 201 204 200 196 197 193 207 181 187 196 192 189 183 190 203 221 224
275 335 329 291 311 220 235 108 215 225 160 165 187 183 189 194 183 184 180 183 185 196 188 186 185 177 184 198 194 183 191 181 200 209 189 186 190 188 193 192 193 200 190 193 192 197 189 225 236
350 50 345 280 335 333 49 290 306 206 168 183 188 195 191 197 193 191 186 177 194 188 188 189 185 178 189 191 185 186 215 177 180 180 186 196 191 181 185 197 212 194 185 190 193 180 189 213 226
357 231 259 305 152 341 71 301 302 199 178 189 188 198 200 196 204 194 194 188 185 192 185 187 184 181 191 185 183 191 208 174 173 154 171 195 202 205 209 202 220 203 186 185 182 179 174 180 203
210 200 247 247 306 1 323 283 292 216 204 187 199 197 199 199 211 194 187 193 186 187 186 184 183 183 185 172 165 167 168 183 165 188 186 187 197 205 205 199 203 203 195 194 177 167 193 187 192
206 232 236 268 274 325 281 280 283 220 208 207 213 198 207 213 205 192 191 185 187 188 178 181 178 183 169 165 167 178 203 178 199 201 207 208 204 204 196 200 195 192 211 202 190 161 176 223 158
236 248 267 294 266 161 277 279 278 210 216 205 205 203 216 223 186 190 187 184 188 187 184 180 186 178 184 183 178 151 159 190 168 180 215 204 206 201 189 182 194 193 197 194 190 159 142 182 177
226 215 260 243 312 214 267 288 278 278 218 197 213 217 220 217 199 186 183 189 184 189 187 185 185 181 185 169 120 82 70 53 147 224 231 211 202 198 177 174 176 188 181 193 184 167 166 167 195
255 206 248 265 59 272 127 275 296 281 303 195 226 213 218 224 197 184 191 188 186 194 185 187 184 180 175 158 160 162 173 180 211 203 201 212 191 187 169 171 174 183 179 183 180 181 177 138 179
245 191 212 250 249 115 214 140 260 334 304 288 287 203 220 220 193 186 188 191 190 178 183 178 176 175 167 169 174 178 178 200 166 201 240 199 193 178 175 170 176 179 179 190 175 172 189 167 149
242 323 43 51 80 311 243 177 240 208 223 278 274 274 216 202 193 189 193 174 179 171 170 166 168 170 162 165 169 176 201 217 200 213 189 233 188 197 197 184 177 177 183 187 181 187 197 190 185
131 57 319 334 353 236 248 198 234 219 221 225 254 263 239 194 183 174 155 166 165 168 171 166 162 158 149 155 148 139 91 83 349 301 262 179 205 204 213 192 182 183 194 195 179 187 196 198 203
186 160 167 239 264 279 31 242 260 243 266 255 238 239 183 171 171 169 170 166 167 168 165 159 156 143 139 141 136 128 122 120 108 286 275 215 219 194 152 212 197 191 194 195 195 200 192 188 203
215 162 199 145 43 86 259 288 314 306 290 308 250 169 183 172 172 158 157 163 162 163 159 153 141 132 135 136 148 153 172 145 185 204 246 224 202 190 167 184 198 200 188 182 172 181 192 187 207
169 176 147 93 272 250 274 276 248 298 306 327 288 181 146 107 108 128 140 140 140 137 133 130 138 140 153 152 157 158 197 202 181 212 216 211 191 161 163 178 185 167 164 147 164 173 215 177 207
282 141 50 101 142 192 233 270 217 255 288 76 13 67 85 82 82 81 95 104 117 121 134 138 134 140 147 154 149 157 193 184 180 228 220 192 159 162 180 185 164 167 182 178 188 189 168 199 212
186 211 163 175 247 199 189 263 344 273 92 109 97 63 78 83 82 86 90 99 107 133 146 144 146 149 150 151 160 171 173 179 176 170 192 180 169 173 178 172 154 170 170 186 178 185 167 192 208